QPF
0.01 0.01 0.01 0.01 0.01 0.01 0.02 0.02 0.01 0.00 0.00 0.00 0.00 0.01 0.01 0.00 0.00 0.00 0.00 0.00 0.00 0.00 0.00 0.00 0.00 0.00 0.00 0.00 0.00 0.00 0.00 0.00 0.00 0.00 0.00 0.01 0.00 0.00 0.01 0.00 0.00 0.00 0.01 0.01
0.01 0.01 0.01 0.01 0.00 0.00 0.01 0.01 0.01 0.00 0.00 0.00 0.00 0.00 0.00 0.00 0.00 0.00 0.00 0.00 0.00 0.00 0.00 0.00 0.00 0.00 0.00 0.00 0.00 0.00 0.00 0.00 0.00 0.00 0.00 0.00 0.00 0.01 0.01 0.01 0.00 0.00 0.01 0.01
0.02 0.02 0.02 0.01 0.00 0.00 0.00 0.00 0.00 0.00 0.00 0.00 0.00 0.00 0.00 0.00 0.00 0.00 0.00 0.00 0.00 0.00 0.00 0.00 0.00 0.00 0.00 0.00 0.00 0.00 0.00 0.00 0.00 0.01 0.01 0.01 0.01 0.01 0.01 0.01 0.01 0.01 0.01 0.01
0.02 0.02 0.02 0.01 0.00 0.00 0.00 0.00 0.00 0.00 0.00 0.00 0.00 0.00 0.00 0.00 0.00 0.00 0.00 0.00 0.00 0.00 0.00 0.00 0.00 0.00 0.00 0.00 0.00 0.00 0.00 0.00 0.00 0.00 0.01 0.01 0.01 0.02 0.02 0.02 0.02 0.03 0.02 0.01
0.03 0.02 0.02 0.01 0.00 0.01 0.00 0.00 0.00 0.00 0.00 0.00 0.00 0.00 0.00 0.00 0.00 0.00 0.00 0.00 0.00 0.00 0.00 0.00 0.00 0.00 0.00 0.00 0.00 0.00 0.00 0.00 0.00 0.00 0.00 0.01 0.01 0.01 0.01 0.02 0.02 0.03 0.03 0.03
0.05 0.03 0.02 0.01 0.00 0.01 0.01 0.01 0.01 0.00 0.00 0.00 0.00 0.00 0.00 0.00 0.00 0.00 0.00 0.00 0.00 0.00 0.00 0.00 0.00 0.00 0.00 0.00 0.00 0.00 0.00 0.00 0.00 0.00 0.00 0.00 0.00 0.00 0.00 0.01 0.01 0.02 0.02 0.03
0.05 0.04 0.03 0.02 0.01 0.01 0.02 0.02 0.01 0.01 0.00 0.00 0.00 0.01 0.01 0.01 0.00 0.00 0.00 0.00 0.00 0.00 0.00 0.00 0.00 0.00 0.00 0.00 0.00 0.00 0.00 0.00 0.00 0.00 0.00 0.00 0.00 0.00 0.00 0.00 0.01 0.01 0.02 0.02
0.03 0.04 0.03 0.02 0.01 0.02 0.02 0.01 0.01 0.01 0.01 0.01 0.01 0.01 0.01 0.01 0.01 0.00 0.00 0.00 0.00 0.00 0.00 0.00 0.00 0.00 0.00 0.00 0.00 0.00 0.00 0.00 0.00 0.00 0.00 0.00 0.00 0.00 0.00 0.00 0.01 0.01 0.01 0.01
0.02 0.03 0.02 0.01 0.02 0.02 0.01 0.01 0.01 0.00 0.00 0.00 0.00 0.00 0.00 0.00 0.00 0.00 0.00 0.00 0.00 0.00 0.00 0.00 0.00 0.00 0.00 0.00 0.00 0.00 0.00 0.00 0.00 0.00 0.00 0.00 0.00 0.00 0.00 0.01 0.01 0.01 0.02 0.02
0.02 0.01 0.01 0.01 0.01 0.01 0.01 0.01 0.01 0.00 0.00 0.00 0.00 0.00 0.00 0.00 0.00 0.00 0.00 0.00 0.00 0.00 0.00 0.00 0.00 0.00 0.00 0.00 0.00 0.00 0.00 0.00 0.00 0.00 0.00 0.00 0.00 0.00 0.01 0.01 0.02 0.02 0.02 0.03
0.02 0.02 0.01 0.01 0.00 0.00 0.01 0.01 0.00 0.00 0.00 0.00 0.00 0.00 0.00 0.00 0.00 0.00 0.00 0.01 0.01 0.00 0.00 0.00 0.00 0.00 0.00 0.00 0.00 0.00 0.00 0.00 0.00 0.00 0.01 0.00 0.00 0.00 0.01 0.02 0.03 0.05 0.04 0.04
0.02 0.02 0.03 0.02 0.01 0.00 0.00 0.00 0.00 0.00 0.00 0.00 0.00 0.00 0.00 0.00 0.00 0.00 0.00 0.00 0.00 0.00 0.00 0.00 0.00 0.00 0.00 0.00 0.01 0.00 0.00 0.00 0.01 0.00 0.01 0.00 0.01 0.00 0.01 0.02 0.03 0.03 0.04 0.05
0.01 0.01 0.02 0.02 0.01 0.00 0.00 0.00 0.01 0.00 0.01 0.01 0.00 0.00 0.01 0.00 0.00 0.00 0.00 0.00 0.00 0.00 0.00 0.00 0.00 0.00 0.00 0.00 0.01 0.01 0.01 0.00 0.00 0.00 0.00 0.00 0.01 0.01 0.01 0.01 0.01 0.02 0.03 0.05
0.00 0.00 0.01 0.01 0.01 0.00 0.00 0.00 0.01 0.01 0.01 0.01 0.01 0.01 0.00 0.00 0.00 0.00 0.00 0.00 0.00 0.00 0.00 0.00 0.00 0.00 0.00 0.00 0.01 0.01 0.01 0.01 0.01 0.00 0.00 0.00 0.01 0.01 0.01 0.01 0.01 0.02 0.03 0.05
0.01 0.01 0.01 0.01 0.00 0.00 0.00 0.01 0.01 0.01 0.01 0.01 0.01 0.01 0.00 0.00 0.00 0.00 0.00 0.00 0.00 0.00 0.00 0.00 0.00 0.00 0.00 0.00 0.01 0.01 0.01 0.01 0.01 0.01 0.01 0.01 0.01 0.01 0.02 0.02 0.02 0.02 0.03 0.04
0.01 0.01 0.01 0.00 0.00 0.00 0.00 0.00 0.01 0.01 0.01 0.01 0.01 0.01 0.00 0.00 0.00 0.00 0.00 0.00 0.00 0.00 0.00 0.00 0.00 0.00 0.00 0.00 0.01 0.01 0.01 0.01 0.01 0.01 0.01 0.01 0.01 0.02 0.02 0.02 0.02 0.02 0.03 0.04
0.01 0.01 0.01 0.01 0.01 0.00 0.00 0.00 0.01 0.01 0.01 0.01 0.01 0.01 0.00 0.00 0.00 0.00 0.00 0.00 0.00 0.00 0.00 0.00 0.00 0.00 0.00 0.00 0.00 0.01 0.01 0.01 0.01 0.01 0.01 0.01 0.01 0.02 0.02 0.02 0.03 0.03 0.04 0.05
0.01 0.01 0.01 0.01 0.01 0.00 0.00 0.00 0.00 0.00 0.01 0.01 0.01 0.01 0.01 0.00 0.00 0.00 0.00 0.00 0.00 0.00 0.00 0.00 0.00 0.00 0.00 0.00 0.00 0.01 0.01 0.01 0.01 0.01 0.01 0.01 0.02 0.02 0.03 0.03 0.03 0.03 0.04 0.04
0.01 0.01 0.01 0.01 0.01 0.01 0.01 0.00 0.00 0.00 0.00 0.00 0.01 0.01 0.01 0.01 0.01 0.00 0.00 0.00 0.00 0.00 0.01 0.01 0.01 0.01 0.01 0.01 0.01 0.01 0.01 0.01 0.01 0.01 0.01 0.01 0.01 0.02 0.02 0.03 0.03 0.03 0.04 0.04
0.01 0.01 0.01 0.01 0.01 0.01 0.01 0.01 0.01 0.01 0.00 0.00 0.01 0.01 0.01 0.00 0.00 0.00 0.00 0.00 0.01 0.01 0.01 0.01 0.01 0.01 0.01 0.01 0.01 0.01 0.01 0.02 0.02 0.01 0.01 0.01 0.01 0.02 0.02 0.02 0.03 0.03 0.04 0.04
0.01 0.01 0.01 0.01 0.01 0.01 0.01 0.01 0.01 0.00 0.00 0.00 0.00 0.01 0.01 0.00 0.00 0.00 0.00 0.00 0.00 0.00 0.01 0.01 0.01 0.01 0.01 0.02 0.02 0.02 0.02 0.02 0.02 0.02 0.02 0.02 0.02 0.02 0.02 0.02 0.03 0.03 0.03 0.03
0.01 0.01 0.01 0.01 0.01 0.01 0.00 0.00 0.01 0.01 0.01 0.00 0.00 0.00 0.00 0.00 0.00 0.00 0.00 0.00 0.00 0.00 0.01 0.01 0.01 0.01 0.02 0.02 0.02 0.01 0.02 0.02 0.02 0.02 0.02 0.02 0.02 0.03 0.03 0.02 0.03 0.03 0.03 0.03
0.01 0.01 0.01 0.01 0.01 0.01 0.00 0.01 0.01 0.01 0.01 0.01 0.00 0.00 0.00 0.00 0.00 0.00 0.00 0.00 0.00 0.01 0.01 0.01 0.01 0.02 0.02 0.01 0.01 0.01 0.01 0.01 0.01 0.01 0.02 0.02 0.02 0.02 0.02 0.02 0.02 0.02 0.02 0.03
0.01 0.01 0.01 0.01 0.01 0.01 0.01 0.01 0.01 0.01 0.01 0.01 0.00 0.00 0.00 0.00 0.00 0.00 0.00 0.00 0.01 0.01 0.01 0.01 0.01 0.02 0.02 0.02 0.01 0.01 0.01 0.01 0.01 0.01 0.01 0.01 0.02 0.02 0.02 0.02 0.02 0.02 0.02 0.02
0.01 0.01 0.01 0.01 0.01 0.01 0.00 0.00 0.01 0.01 0.01 0.01 0.00 0.00 0.00 0.01 0.01 0.00 0.01 0.01 0.01 0.01 0.01 0.01 0.01 0.01 0.01 0.01 0.01 0.01 0.01 0.01 0.01 0.01 0.01 0.01 0.02 0.02 0.02 0.02 0.02 0.02 0.02 0.02
0.01 0.01 0.01 0.01 0.01 0.01 0.01 0.01 0.01 0.01 0.01 0.01 0.01 0.01 0.01 0.01 0.01 0.01 0.01 0.01 0.01 0.01 0.01 0.01 0.01 0.01 0.01 0.01 0.01 0.01 0.01 0.01 0.01 0.01 0.01 0.01 0.01 0.02 0.02 0.02 0.02 0.02 0.02 0.02
0.01 0.01 0.02 0.02 0.01 0.01 0.01 0.01 0.01 0.01 0.01 0.01 0.01 0.01 0.01 0.01 0.01 0.01 0.01 0.01 0.01 0.01 0.01 0.01 0.01 0.01 0.01 0.01 0.01 0.01 0.01 0.01 0.01 0.01 0.01 0.01 0.01 0.02 0.02 0.02 0.02 0.02 0.02 0.03
MSLP
1004.64 1004.66 1004.75 1004.85 1004.93 1004.95 1004.89 1004.75 1004.55 1004.32 1004.10 1003.95 1003.90 1003.96 1004.15 1004.44 1004.80 1005.20 1005.60 1005.98 1006.31 1006.61 1006.89 1007.19 1007.54 1007.95 1008.45 1009.04 1009.68 1010.37 1011.05 1011.70 1012.29 1012.82 1013.29 1013.70 1014.08 1014.45 1014.82 1015.17 1015.50 1015.78 1015.98 1016.07
1004.87 1004.86 1004.93 1005.05 1005.18 1005.26 1005.30 1005.26 1005.17 1005.04 1004.91 1004.82 1004.79 1004.86 1005.01 1005.25 1005.55 1005.88 1006.22 1006.54 1006.83 1007.09 1007.34 1007.61 1007.91 1008.28 1008.71 1009.22 1009.78 1010.38 1010.98 1011.55 1012.08 1012.56 1012.98 1013.36 1013.71 1014.04 1014.35 1014.66 1014.93 1015.17 1015.33 1015.41
1005.25 1005.25 1005.35 1005.52 1005.72 1005.91 1006.04 1006.13 1006.15 1006.12 1006.07 1006.03 1006.02 1006.07 1006.19 1006.38 1006.61 1006.88 1007.16 1007.42 1007.67 1007.90 1008.12 1008.34 1008.60 1008.90 1009.25 1009.67 1010.12 1010.61 1011.11 1011.59 1012.04 1012.44 1012.81 1013.13 1013.42 1013.69 1013.94 1014.17 1014.38 1014.55 1014.66 1014.71
1005.74 1005.78 1005.94 1006.19 1006.48 1006.78 1007.03 1007.23 1007.37 1007.44 1007.46 1007.47 1007.48 1007.52 1007.61 1007.74 1007.92 1008.13 1008.35 1008.57 1008.78 1008.97 1009.15 1009.33 1009.52 1009.74 1010.00 1010.31 1010.65 1011.02 1011.40 1011.77 1012.13 1012.45 1012.74 1012.99 1013.21 1013.40 1013.57 1013.72 1013.85 1013.94 1013.99 1014.00
1006.26 1006.37 1006.62 1006.96 1007.35 1007.76 1008.13 1008.45 1008.68 1008.84 1008.94 1008.98 1009.01 1009.05 1009.11 1009.21 1009.34 1009.50 1009.67 1009.84 1010.01 1010.15 1010.29 1010.41 1010.53 1010.67 1010.83 1011.02 1011.25 1011.49 1011.76 1012.02 1012.28 1012.51 1012.72 1012.89 1013.03 1013.14 1013.23 1013.29 1013.33 1013.34 1013.33 1013.30
1006.81 1007.01 1007.34 1007.77 1008.26 1008.77 1009.24 1009.65 1009.97 1010.20 1010.35 1010.43 1010.48 1010.51 1010.55 1010.61 1010.70 1010.81 1010.93 1011.06 1011.18 1011.27 1011.35 1011.41 1011.46 1011.51 1011.57 1011.66 1011.77 1011.91 1012.06 1012.23 1012.39 1012.54 1012.66 1012.76 1012.82 1012.85 1012.86 1012.84 1012.80 1012.74 1012.68 1012.61
1007.41 1007.69 1008.10 1008.61 1009.18 1009.75 1010.29 1010.75 1011.13 1011.40 1011.59 1011.69 1011.74 1011.76 1011.77 1011.80 1011.85 1011.91 1011.98 1012.06 1012.12 1012.16 1012.18 1012.17 1012.15 1012.12 1012.10 1012.09 1012.11 1012.15 1012.21 1012.29 1012.37 1012.44 1012.50 1012.52 1012.52 1012.49 1012.42 1012.33 1012.23 1012.12 1012.02 1011.92
1008.11 1008.46 1008.94 1009.50 1010.10 1010.70 1011.26 1011.74 1012.12 1012.40 1012.59 1012.68 1012.72 1012.71 1012.69 1012.68 1012.67 1012.68 1012.69 1012.71 1012.71 1012.69 1012.65 1012.59 1012.50 1012.41 1012.32 1012.24 1012.18 1012.15 1012.15 1012.16 1012.18 1012.19 1012.19 1012.16 1012.10 1012.01 1011.89 1011.75 1011.61 1011.46 1011.33 1011.22
1008.97 1009.38 1009.89 1010.46 1011.05 1011.63 1012.16 1012.60 1012.95 1013.20 1013.34 1013.40 1013.39 1013.34 1013.26 1013.19 1013.13 1013.07 1013.02 1012.97 1012.91 1012.84 1012.74 1012.62 1012.49 1012.35 1012.21 1012.09 1011.99 1011.91 1011.86 1011.83 1011.80 1011.77 1011.72 1011.65 1011.54 1011.41 1011.25 1011.08 1010.91 1010.75 1010.61 1010.49
1010.03 1010.47 1010.98 1011.52 1012.06 1012.57 1013.01 1013.38 1013.64 1013.80 1013.87 1013.85 1013.77 1013.65 1013.52 1013.37 1013.24 1013.11 1012.99 1012.87 1012.75 1012.62 1012.47 1012.31 1012.15 1011.98 1011.82 1011.68 1011.56 1011.47 1011.39 1011.33 1011.28 1011.21 1011.13 1011.02 1010.88 1010.72 1010.54 1010.35 1010.16 1009.99 1009.85 1009.74
1011.28 1011.72 1012.19 1012.66 1013.11 1013.51 1013.83 1014.07 1014.21 1014.26 1014.21 1014.10 1013.93 1013.73 1013.51 1013.29 1013.07 1012.87 1012.68 1012.50 1012.31 1012.13 1011.94 1011.76 1011.57 1011.40 1011.24 1011.10 1010.98 1010.89 1010.81 1010.74 1010.66 1010.58 1010.47 1010.33 1010.16 1009.97 1009.77 1009.56 1009.36 1009.19 1009.05 1008.95
1012.65 1013.06 1013.47 1013.84 1014.16 1014.42 1014.59 1014.67 1014.67 1014.57 1014.41 1014.18 1013.91 1013.62 1013.31 1013.01 1012.72 1012.45 1012.19 1011.95 1011.71 1011.49 1011.27 1011.07 1010.88 1010.71 1010.55 1010.43 1010.33 1010.24 1010.17 1010.09 1010.01 1009.90 1009.77 1009.60 1009.41 1009.19 1008.97 1008.75 1008.54 1008.37 1008.23 1008.13
1014.01 1014.37 1014.69 1014.94 1015.12 1015.22 1015.23 1015.15 1014.99 1014.76 1014.47 1014.13 1013.76 1013.38 1013.00 1012.63 1012.28 1011.94 1011.62 1011.33 1011.05 1010.79 1010.55 1010.33 1010.14 1009.98 1009.84 1009.73 1009.65 1009.58 1009.51 1009.43 1009.33 1009.21 1009.06 1008.87 1008.65 1008.41 1008.17 1007.93 1007.72 1007.54 1007.40 1007.30
1015.24 1015.52 1015.72 1015.84 1015.87 1015.81 1015.66 1015.43 1015.13 1014.78 1014.38 1013.95 1013.51 1013.06 1012.62 1012.19 1011.78 1011.39 1011.03 1010.69 1010.37 1010.09 1009.83 1009.60 1009.41 1009.25 1009.12 1009.03 1008.95 1008.89 1008.82 1008.74 1008.64 1008.50 1008.33 1008.12 1007.88 1007.62 1007.36 1007.12 1006.89 1006.70 1006.56 1006.45
1016.18 1016.37 1016.45 1016.43 1016.32 1016.11 1015.83 1015.47 1015.06 1014.61 1014.13 1013.64 1013.14 1012.65 1012.16 1011.70 1011.25 1010.82 1010.42 1010.04 1009.69 1009.38 1009.10 1008.86 1008.65 1008.49 1008.37 1008.28 1008.21 1008.14 1008.08 1007.99 1007.88 1007.73 1007.54 1007.32 1007.07 1006.81 1006.54 1006.29 1006.07 1005.87 1005.72 1005.61
1016.76 1016.83 1016.79 1016.64 1016.40 1016.07 1015.68 1015.23 1014.74 1014.23 1013.70 1013.17 1012.65 1012.13 1011.62 1011.13 1010.66 1010.20 1009.76 1009.35 1008.97 1008.63 1008.32 1008.06 1007.84 1007.67 1007.53 1007.43 1007.36 1007.29 1007.22 1007.13 1007.01 1006.86 1006.67 1006.45 1006.21 1005.95 1005.70 1005.45 1005.23 1005.05 1004.90 1004.80
1016.92 1016.87 1016.71 1016.45 1016.11 1015.69 1015.22 1014.71 1014.18 1013.64 1013.10 1012.55 1012.02 1011.49 1010.97 1010.46 1009.97 1009.48 1009.02 1008.57 1008.16 1007.78 1007.44 1007.15 1006.90 1006.71 1006.56 1006.45 1006.36 1006.29 1006.21 1006.12 1006.01 1005.87 1005.69 1005.49 1005.27 1005.04 1004.81 1004.59 1004.40 1004.24 1004.11 1004.02
1016.72 1016.55 1016.28 1015.92 1015.50 1015.02 1014.50 1013.97 1013.42 1012.88 1012.33 1011.79 1011.26 1010.73 1010.20 1009.67 1009.15 1008.64 1008.13 1007.65 1007.20 1006.78 1006.40 1006.08 1005.81 1005.59 1005.42 1005.30 1005.20 1005.12 1005.05 1004.97 1004.87 1004.76 1004.61 1004.45 1004.27 1004.08 1003.90 1003.73 1003.57 1003.45 1003.35 1003.28
1016.22 1015.93 1015.56 1015.13 1014.65 1014.14 1013.61 1013.07 1012.53 1011.99 1011.45 1010.92 1010.38 1009.84 1009.29 1008.74 1008.19 1007.63 1007.09 1006.56 1006.07 1005.61 1005.20 1004.85 1004.55 1004.31 1004.13 1004.00 1003.90 1003.83 1003.77 1003.71 1003.64 1003.56 1003.46 1003.35 1003.23 1003.10 1002.98 1002.87 1002.77 1002.69 1002.63 1002.60
1015.54 1015.15 1014.71 1014.22 1013.71 1013.18 1012.64 1012.11 1011.57 1011.04 1010.51 1009.97 1009.42 1008.86 1008.28 1007.69 1007.09 1006.48 1005.89 1005.32 1004.78 1004.29 1003.85 1003.47 1003.16 1002.92 1002.73 1002.60 1002.52 1002.46 1002.42 1002.40 1002.37 1002.34 1002.30 1002.25 1002.20 1002.14 1002.08 1002.03 1001.99 1001.97 1001.95 1001.95
1014.80 1014.33 1013.82 1013.29 1012.76 1012.22 1011.69 1011.16 1010.63 1010.10 1009.55 1008.99 1008.41 1007.80 1007.18 1006.53 1005.87 1005.21 1004.57 1003.96 1003.38 1002.86 1002.41 1002.02 1001.71 1001.47 1001.29 1001.18 1001.12 1001.10 1001.10 1001.11 1001.14 1001.16 1001.18 1001.20 1001.21 1001.22 1001.23 1001.24 1001.26 1001.28 1001.30 1001.33
1014.08 1013.54 1012.98 1012.43 1011.88 1011.33 1010.80 1010.27 1009.73 1009.18 1008.60 1008.00 1007.37 1006.70 1006.01 1005.30 1004.58 1003.87 1003.18 1002.52 1001.92 1001.39 1000.93 1000.55 1000.25 1000.03 999.89 999.81 999.78 999.80 999.84 999.90 999.98 1000.06 1000.14 1000.22 1000.29 1000.36 1000.42 1000.49 1000.55 1000.60 1000.66 1000.71
1013.44 1012.84 1012.25 1011.66 1011.10 1010.54 1009.99 1009.44 1008.87 1008.28 1007.66 1007.00 1006.31 1005.57 1004.81 1004.03 1003.25 1002.49 1001.76 1001.08 1000.46 999.93 999.48 999.13 998.86 998.67 998.57 998.53 998.54 998.60 998.69 998.80 998.93 999.05 999.18 999.31 999.43 999.55 999.66 999.76 999.85 999.93 1000.00 1000.05
1012.89 1012.25 1011.61 1011.00 1010.41 1009.83 1009.25 1008.66 1008.05 1007.40 1006.72 1005.99 1005.22 1004.42 1003.59 1002.75 1001.92 1001.12 1000.37 999.68 999.07 998.55 998.13 997.80 997.57 997.43 997.37 997.37 997.43 997.53 997.66 997.81 997.97 998.14 998.30 998.47 998.62 998.77 998.90 999.02 999.13 999.22 999.29 999.35
1012.42 1011.73 1011.06 1010.41 1009.78 1009.16 1008.53 1007.89 1007.22 1006.50 1005.75 1004.95 1004.12 1003.25 1002.37 1001.49 1000.63 999.81 999.06 998.38 997.79 997.30 996.91 996.63 996.43 996.33 996.31 996.35 996.44 996.57 996.73 996.91 997.10 997.29 997.48 997.66 997.84 998.00 998.15 998.28 998.39 998.48 998.54 998.59
1011.99 1011.25 1010.54 1009.85 1009.17 1008.50 1007.81 1007.10 1006.35 1005.57 1004.75 1003.89 1003.00 1002.09 1001.18 1000.28 999.42 998.62 997.88 997.23 996.67 996.22 995.87 995.63 995.47 995.40 995.41 995.47 995.59 995.74 995.91 996.10 996.30 996.50 996.70 996.89 997.07 997.24 997.39 997.52 997.62 997.71 997.77 997.80
1011.57 1010.80 1010.04 1009.30 1008.56 1007.81 1007.05 1006.27 1005.45 1004.61 1003.73 1002.83 1001.91 1000.98 1000.07 999.19 998.36 997.59 996.89 996.29 995.78 995.37 995.07 994.85 994.72 994.67 994.69 994.76 994.88 995.03 995.21 995.39 995.59 995.79 995.98 996.17 996.35 996.51 996.65 996.77 996.87 996.95 997.00 997.04
Thickness
5475 5481 5486 5490 5492 5490 5495 5510 5518 5532 5531 5535 5532 5528 5525 5523 5521 5520 5519 5517 5516 5515 5514 5512 5510 5508 5505 5502 5499 5496 5494 5491 5489 5486 5482 5479 5476 5474 5470 5467 5465 5462 5460 5459
5457 5466 5471 5476 5484 5488 5491 5498 5504 5509 5516 5519 5515 5513 5512 5511 5507 5506 5505 5504 5502 5501 5499 5498 5495 5493 5490 5488 5485 5482 5480 5478 5475 5472 5470 5467 5464 5461 5459 5456 5454 5452 5450 5449
5456 5451 5455 5467 5477 5480 5485 5489 5495 5500 5508 5502 5500 5499 5499 5497 5494 5493 5491 5490 5489 5487 5486 5483 5481 5478 5476 5473 5470 5468 5466 5464 5461 5459 5457 5455 5452 5449 5447 5445 5443 5441 5440 5439
5438 5439 5450 5470 5465 5470 5473 5474 5477 5483 5486 5486 5486 5482 5481 5482 5481 5480 5478 5475 5474 5472 5470 5467 5465 5463 5461 5459 5456 5454 5452 5450 5448 5446 5444 5442 5440 5438 5436 5434 5432 5431 5430 5430
5427 5439 5450 5452 5448 5450 5456 5459 5459 5463 5466 5466 5465 5467 5469 5465 5464 5464 5463 5461 5459 5456 5454 5452 5450 5448 5446 5445 5442 5440 5439 5436 5434 5432 5431 5429 5428 5427 5425 5423 5422 5422 5421 5421
5416 5429 5439 5443 5437 5435 5443 5449 5446 5447 5449 5450 5452 5463 5463 5450 5448 5447 5445 5444 5442 5440 5439 5438 5436 5434 5432 5431 5429 5428 5425 5423 5421 5419 5418 5417 5417 5416 5415 5414 5413 5413 5413 5412
5407 5417 5428 5421 5418 5425 5437 5439 5430 5431 5432 5435 5440 5443 5437 5433 5431 5430 5428 5427 5426 5425 5424 5423 5421 5420 5419 5418 5416 5414 5411 5410 5409 5407 5407 5407 5407 5406 5406 5405 5405 5405 5405 5405
5399 5405 5414 5404 5408 5415 5417 5413 5413 5415 5417 5418 5418 5417 5416 5416 5415 5414 5412 5412 5411 5410 5409 5408 5407 5406 5406 5404 5402 5400 5399 5399 5398 5397 5397 5396 5397 5397 5397 5397 5397 5398 5398 5399
5396 5400 5394 5391 5393 5394 5397 5398 5399 5400 5401 5402 5402 5402 5401 5401 5400 5399 5398 5397 5396 5396 5395 5394 5393 5392 5392 5390 5389 5388 5388 5389 5388 5388 5387 5387 5388 5389 5389 5389 5389 5389 5390 5391
5377 5381 5379 5378 5379 5379 5382 5384 5384 5385 5386 5388 5388 5388 5386 5385 5385 5384 5383 5382 5382 5382 5382 5381 5380 5379 5378 5377 5376 5377 5378 5378 5378 5379 5379 5379 5379 5379 5380 5380 5380 5381 5382 5383
5367 5366 5365 5368 5367 5368 5368 5369 5370 5371 5372 5373 5374 5373 5372 5371 5370 5370 5369 5369 5368 5369 5369 5369 5367 5367 5366 5366 5365 5366 5367 5368 5368 5368 5369 5371 5371 5371 5371 5371 5370 5371 5373 5373
5365 5359 5360 5361 5356 5356 5356 5357 5357 5357 5358 5358 5358 5357 5357 5357 5356 5356 5356 5356 5356 5356 5356 5356 5355 5355 5354 5354 5354 5355 5357 5358 5358 5359 5360 5361 5362 5364 5364 5363 5364 5363 5364 5364
5342 5341 5344 5343 5342 5342 5343 5343 5343 5344 5344 5344 5344 5344 5344 5344 5343 5343 5343 5343 5343 5343 5343 5343 5344 5344 5343 5343 5344 5345 5346 5347 5348 5349 5350 5352 5353 5355 5357 5359 5358 5358 5359 5359
5325 5328 5331 5331 5329 5329 5329 5329 5329 5329 5329 5330 5330 5330 5330 5330 5330 5330 5330 5330 5330 5331 5331 5332 5332 5332 5332 5332 5334 5335 5336 5337 5338 5340 5341 5343 5344 5346 5347 5350 5352 5354 5353 5353
5313 5316 5318 5317 5316 5316 5317 5317 5317 5317 5317 5317 5318 5318 5318 5318 5318 5318 5318 5318 5319 5319 5320 5321 5321 5322 5321 5322 5324 5325 5327 5328 5330 5331 5333 5335 5336 5338 5339 5341 5343 5345 5347 5348
5302 5304 5306 5306 5306 5306 5306 5306 5307 5306 5306 5305 5305 5306 5306 5306 5307 5307 5307 5307 5308 5310 5310 5310 5311 5311 5312 5312 5314 5316 5318 5319 5321 5323 5325 5327 5329 5331 5332 5334 5335 5337 5339 5340
5294 5296 5296 5297 5296 5296 5296 5296 5296 5296 5295 5295 5295 5295 5295 5296 5297 5298 5298 5298 5298 5299 5300 5300 5301 5302 5302 5303 5305 5308 5310 5312 5313 5316 5318 5320 5322 5323 5325 5327 5329 5330 5332 5334
5284 5285 5285 5286 5286 5286 5286 5286 5286 5286 5285 5285 5284 5285 5286 5287 5288 5288 5288 5289 5289 5291 5292 5292 5293 5294 5295 5296 5297 5299 5302 5304 5306 5308 5310 5313 5315 5317 5318 5320 5323 5324 5326 5328
5275 5275 5275 5276 5277 5277 5277 5277 5277 5276 5276 5276 5276 5277 5277 5278 5278 5279 5280 5281 5282 5285 5286 5285 5286 5288 5289 5290 5291 5293 5295 5298 5300 5302 5304 5306 5309 5311 5313 5315 5317 5319 5321 5323
5266 5267 5267 5267 5268 5267 5267 5268 5267 5267 5268 5268 5269 5269 5270 5271 5271 5271 5273 5274 5276 5277 5278 5278 5280 5281 5282 5284 5285 5288 5290 5292 5294 5296 5298 5300 5303 5305 5307 5309 5312 5314 5316 5319
5258 5259 5259 5259 5259 5260 5260 5260 5260 5260 5261 5261 5262 5263 5263 5263 5264 5264 5267 5270 5271 5270 5271 5273 5274 5276 5277 5278 5280 5282 5284 5286 5288 5290 5292 5294 5297 5300 5302 5304 5307 5309 5312 5314
5251 5252 5252 5252 5252 5253 5253 5254 5254 5254 5255 5255 5256 5256 5256 5258 5258 5259 5261 5262 5263 5264 5266 5267 5269 5270 5272 5273 5275 5277 5278 5280 5282 5284 5287 5289 5292 5294 5297 5299 5302 5305 5308 5310
5244 5245 5246 5246 5246 5246 5247 5248 5248 5249 5249 5249 5250 5250 5251 5252 5253 5254 5257 5257 5257 5259 5260 5262 5263 5265 5267 5268 5270 5271 5273 5275 5277 5279 5282 5284 5287 5290 5293 5295 5298 5301 5304 5307
5238 5239 5239 5240 5240 5241 5242 5244 5243 5244 5244 5244 5245 5245 5245 5247 5249 5249 5250 5251 5252 5254 5255 5256 5258 5261 5262 5264 5265 5267 5269 5270 5273 5275 5278 5280 5283 5286 5289 5292 5295 5298 5301 5304
5232 5233 5234 5235 5237 5238 5238 5238 5238 5239 5240 5241 5242 5242 5242 5242 5243 5245 5245 5246 5247 5249 5250 5252 5254 5256 5258 5259 5261 5262 5264 5266 5269 5271 5274 5277 5280 5283 5286 5289 5292 5295 5299 5302
5228 5230 5231 5231 5232 5233 5234 5235 5236 5236 5237 5238 5239 5239 5239 5240 5240 5242 5243 5244 5244 5246 5247 5248 5250 5252 5253 5255 5257 5259 5261 5263 5266 5268 5271 5275 5278 5281 5284 5287 5290 5293 5297 5301
5224 5225 5226 5228 5229 5230 5230 5231 5231 5232 5233 5233 5234 5236 5237 5238 5239 5240 5241 5242 5243 5244 5245 5246 5248 5249 5251 5252 5254 5256 5258 5261 5263 5267 5270 5273 5276 5280 5283 5285 5289 5292 5296 5301